Regional Weather Roundup
Issued by NWS

Home | Current Version | Previous Version | Text Only | Print | Product List | Glossary On
Versions: 1 2 3 4 5 6 7 8 9 10 11 12 13 14 15 16 17 18 19 20 21 22 23 24 25 26 27 28 29 30 31 32 33 34 35 36 37 38 39 40 41 42 43 44 45 46 47 48 49 50
000
ASUS45 KBOU 270310
RWRCO

WEATHER ROUNDUP FOR COLORADO
NATIONAL WEATHER SERVICE PUEBLO CO
900 PM MDT THU APR 26 2018

NOTE: "FAIR" INDICATES FEW OR NO CLOUDS BELOW 12000 FEET WITH NO
SIGNIFICANT WEATHER AND/OR OBSTRUCTIONS TO VISIBILITY.

COZ001>005-013-030-031-270400-
...NORTHWEST COLORADO...

CITY           SKY/WX    TMP DP  RH WIND       PRES   REMARKS
CRAIG          CLEAR     43  28  55 SW6       30.23R
HAYDEN         CLEAR     47  26  44 S7        30.25R
MEEKER         CLEAR     52  19  27 E3        30.22R
RABBIT EARS PA NOT AVBL
STEAMBOAT SPGS FAIR      49  22  34 CALM      30.25R
WALDEN         FAIR      37  10  32 N7        30.32R
$$

COZ006>008-011-270400-
...WEST CENTRAL VALLEYS...

CITY           SKY/WX    TMP DP  RH WIND       PRES   REMARKS
GRAND JUNCTION CLEAR     64  20  18 NE13      30.09R
MONTROSE       CLEAR     56  18  22 E3        30.15R
EAGLE          CLEAR     53  17  24 SE5       30.24R
RIFLE          PTCLDY    60  16  18 W9        30.16R
DELTA          NOT AVBL
NUCLA          FAIR      61  10  13 E8        30.17R
$$

COZ017>023-064>068-270400-
...SOUTHWEST COLORADO...

CITY           SKY/WX    TMP DP  RH WIND       PRES   REMARKS
DURANGO        CLEAR     63   4   9 CALM      30.09R
CORTEZ         CLEAR     59   5  11 NE7       30.10R
PAGOSA SPRINGS FAIR      56   3  12 NE5       30.17R
TELLURIDE      PTCLDY    48  16  27 E6        30.31R
WOLF CREEK PAS CLEAR     37   9  30 N10G18    30.48R
$$

COZ009-010-012-014-032>034-037-058>063-270400-
...CENTRAL COLORADO...

CITY           SKY/WX    TMP DP  RH WIND       PRES   REMARKS
ASPEN          CLEAR     46  22  38 SW9       30.26R
BUENA VISTA    FAIR      46  26  46 SE8       30.30R
COPPER MTN     NOT AVBL
BERTHOUD PASS  FAIR      27  16  63 NW21      30.45R WCI  13
COTTONWOOD PAS CLEAR     46  28  49 SE6       30.37R
GUNNISON       CLEAR     48  17  29 NW7       30.25R
KREMMLING      CLEAR     46  18  31 CALM      30.28R
LEADVILLE      CLEAR     35  15  44 NE5       30.35R WCI  31
MONARCH PASS   CLEAR     30  23  74 NE16      30.53R WCI  19
SALIDA         FAIR      49  26  40 SE8G23    30.37R
SUNLIGHT       CLEAR     36  12  38 CALM      30.44R
WILKERSON PASS CLEAR     30  23  74 SE8       30.45R WCI  23
$$

COZ069>075-270400-
...SAN LUIS VALLEY/SANGRE DE CRISTO MOUNTAINS...

CITY           SKY/WX    TMP DP  RH WIND       PRES   REMARKS
ALAMOSA        CLEAR     45  25  45 E16       30.22R
DEL NORTE      FAIR      48  22  36 E8        30.26R
LA VETA PASS   CLEAR     30  23  74 NE9G20    30.50R WCI  22
SAGUACHE       NOT AVBL
$$

COZ035-036-038>040-270400-
...NORTHERN COLORADO FRONT RANGE...

CITY           SKY/WX    TMP DP  RH WIND       PRES   REMARKS
DENVER INTL AP CLEAR     43  26  51 SE8       30.25R
DMNS CITY PARK NOT AVBL
AURORA         CLEAR     44  24  46 SE9       30.26R
FRONT RANGE AP CLEAR     46  27  46 SE6       30.26R
ERIE MUNI ARPT FAIR      46  32  58 CALM      30.29R
BOULDER MUN AP FAIR      52  28  40 SW5       30.24R
CENTENNIAL     CLEAR     47  25  42 S6        30.27R
BROOMFIELD     CLEAR     48  27  43 W5        30.26R
LOVELAND       CLEAR     50  27  40 SE7       30.25R
LONGMONT       FAIR      47  32  55 W3        30.26R
$$

COZ041-046-047-076>085-087-088-270400-
...PIKES PEAK/PALMER DIVIDE AND SOUTHERN FOOTHILLS...

CITY           SKY/WX    TMP DP  RH WIND       PRES   REMARKS
COLO. SPRINGS  CLEAR     45  25  45 NE7       30.30R
A. F. ACADEMY  CLEAR     43  25  50 N5        30.30R
SCHRIEVER AFB  NOT AVBL
CHEYENNE MTN   NOT AVBL
ELLICOTT         N/A    N/A N/A N/A E8        30.28R
FALCON         FAIR      40  22  49 N6        30.32R
FORT CARSON    CLEAR     49  24  38 CALM      30.29R
LIMON          CLEAR     33  26  75 N5        30.27R WCI  29
MONUMENT HILL  CLEAR     34  23  64 SE3       30.32R
CANON CITY     FAIR      50  32  50 S7        30.28R
WALSENBURG     FAIR      41  28  60 CALM      30.30R
TRINIDAD       CLEAR     46  22  38 CALM      30.30R
$$

COZ042>045-048>051-090-091-270400-
...NORTHEAST COLORADO...

CITY           SKY/WX    TMP DP  RH WIND       PRES   REMARKS
GREELEY ARPT   CLEAR     50  27  40 E3        30.24R
AKRON          CLEAR     45  26  47 NW3       30.23R
BURLINGTON     CLEAR     45  28  51 N5        30.23R
WRAY           FAIR      50  28  43 N5        30.21R
YUMA           NOT AVBL
STERLING       NOT AVBL
HOLYOKE        FAIR      46  32  57 CALM      30.20R
FORT MORGAN    FAIR      51  22  31 NE5       30.24R
$$

COZ086-089-092>099-270400-
...SOUTHEAST COLORADO...

CITY           SKY/WX    TMP DP  RH WIND       PRES   REMARKS
PUEBLO         CLEAR     49  23  36 SE3       30.26R
LA JUNTA       CLEAR     52  26  36 NE5       30.25R
LAMAR          CLEAR     49  28  44 E3        30.21R
SPRINGFIELD      N/A     40  25  55 N10       30.24R
$$




USA.gov is the U.S. government's official web portal to all federal, state and local government web resources and services.